Regional Weather Roundup
Issued by NWS

Home | Current Version | Previous Version | Text Only | Print | Product List | Glossary On
Versions: 1 2 3 4 5 6 7 8 9 10 11 12 13 14 15 16 17 18 19 20 21 22 23 24 25 26 27 28 29 30 31 32 33 34 35 36 37 38 39 40 41 42 43 44 45 46 47 48 49 50
000
ASUS43 KOAX 192310
RWRNE

WEATHER ROUNDUP FOR NEBRASKA
NATIONAL WEATHER SERVICE OMAHA NE
600 PM CDT FRI SEP 19 2014

NOTES: SATELLITE DATA IS BEING USED TO AUGMENT CLOUD COVER ABOVE
       12000 FEET.
       "FAIR" INDICATES FEW OR NO CLOUDS BELOW 12,000 FEET WITH NO
       SIGNIFICANT WEATHER AND/OR OBSTRUCTIONS TO VISIBILITY.

  * THESE STATIONS DO NOT REPORT WEATHER SUCH AS RAIN...SNOW OR FOG.

NEZ001>004-019>022-054>056-200000-
NEBRASKA PANHANDLE

CITY           SKY/WX    TMP DP  RH WIND       PRES   REMARKS
SCOTTSBLUFF    SUNNY     90  48  23 VRB3      29.86F
ALLIANCE       MOSUNNY   86  47  25 NW9       29.85F
CHADRON        MOSUNNY   87  49  26 N10       29.83S
KIMBALL        MOSUNNY   82  44  25 N3        29.91S
SIDNEY         MOSUNNY   86  46  24 N9        29.90R
$$

NEZ057>060-069>072-079>082-200000-
SOUTHWEST NEBRASKA

CITY           SKY/WX    TMP DP  RH WIND       PRES   REMARKS
NORTH PLATTE   SUNNY     90  57  32 SW10      29.79R
IMPERIAL       SUNNY     91  51  25 S13       29.83R
LEXINGTON      SUNNY     90  56  32 S14G22    29.80S
MCCOOK         MOSUNNY   91  58  32 S18G24    29.82R HX  90
OGALLALA       SUNNY     92  51  25 N6        29.82F
$$

NEZ005>010-023>029-035>040-094-200000-
NORTH CENTRAL NEBRASKA

CITY           SKY/WX    TMP DP  RH WIND       PRES   REMARKS
VALENTINE      SUNNY     88  54  31 VRB3      29.79S
AINSWORTH      SUNNY     84  57  38 N5        29.80R
BROKEN BOW     SUNNY     92  56  29 S16G26    29.78S HX  90
O`NEILL        SUNNY     86  64  46 NE5       29.76R
ORD            SUNNY     88  63  43 S20G25    29.75S
THEDFORD       SUNNY     88  58  36 N8        29.81R
$$

NEZ041-046>049-061>064-073>077-083>087-200000-
SOUTH CENTRAL NEBRASKA

CITY           SKY/WX    TMP DP  RH WIND       PRES   REMARKS
GRAND ISLAND   SUNNY     88  62  41 S18G29    29.80F
AURORA         SUNNY     86  60  41 S16       29.81S
HASTINGS       SUNNY     86  59  39 S14G24    29.81F
HEBRON         SUNNY     88  60  39 SW14G25   29.82F
HOLDREGE       SUNNY     87  56  34 S17G25    29.82S
KEARNEY *      SUNNY     88  63  42 S21G26    29.81S
YORK           SUNNY     84  64  51 SW15G22   29.81S
$$

NEZ011>018-030>034-042>045-200000-
NORTHEAST NEBRASKA

CITY           SKY/WX    TMP DP  RH WIND       PRES   REMARKS
NORFOLK        SUNNY     88  63  43 SW14G24   29.75R
ALBION         SUNNY     87  61  42 SW9G18    29.77S
BLAIR          SUNNY     88  65  46 S15G23    29.79R
COLUMBUS *     SUNNY     88  63  42 SW16G22   29.79R
FREMONT        SUNNY     88  62  41 S14G22    29.78R
TEKAMAH        SUNNY     89  65  44 S16G28    29.75S HX  91
WAYNE          SUNNY     88  66  48 SW14      29.75R HX  90
$$

NEZ050>053-065>068-078-088>093-200000-
SOUTHEAST NEBRASKA

CITY           SKY/WX    TMP DP  RH WIND       PRES   REMARKS
LINCOLN        SUNNY     88  65  46 S16       29.80S HX  90
OMAHA EPPLEY   MOSUNNY   85  68  56 S20G29    29.78F
BEATRICE       SUNNY     87  65  47 S17G23    29.82F
FALLS CITY     SUNNY     80  69  69 S16       29.87S
NEBRASKA CITY    N/A     82  64  52 S22       29.84S
PLATTSMOUTH    SUNNY     83  67  58 S16G25    29.81F
$$

NEZ044-045-051>053-067-200000-
OMAHA AREA

CITY           SKY/WX    TMP DP  RH WIND       PRES   REMARKS
OMAHA EPPLEY   MOSUNNY   85  68  56 S20G29    29.78F
BLAIR          SUNNY     88  65  46 S15G23    29.79R
FREMONT        SUNNY     88  62  41 S14G22    29.78R
MILLARD        SUNNY     88  67  49 S7        29.79R HX  91
OFFUTT AFB     SUNNY     83  73  70 SE15      29.79F
PLATTSMOUTH    SUNNY     83  67  58 S16G25    29.81F
WAHOO          FAIR      89  61  38 S10G21    29.78S
$$


USA.gov is the U.S. government's official web portal to all federal, state and local government web resources and services.